| time (UTC) | temp F | wind direction | speed MPH | gust MPH | rain 1hr in | rain 24hr in | rain mn in | humidity % | barometer mb |
| 20260506020811 | 46 | 11 | 10.0 | 11.0 | 0.00 | 0.00 | 0.00 | 44 | 1014.9 |
| 20260506020309 | 47 | 8 | 7.0 | 8.0 | 0.00 | 0.00 | 0.00 | 44 | 1014.9 |
| 20260506015807 | 47 | 24 | 10.0 | 10.0 | 0.00 | 0.00 | 0.00 | 43 | 1015.0 |
| 20260506015306 | 47 | 55 | 10.0 | 11.0 | 0.00 | 0.00 | 0.00 | 43 | 1014.9 |
| 20260506014801 | 47 | 11 | 7.0 | 9.0 | 0.00 | 0.00 | 0.00 | 44 | 1015.0 |
| 20260506014257 | 47 | 22 | 10.0 | 15.0 | 0.00 | 0.00 | 0.00 | 43 | 1014.9 |
| 20260506013754 | 48 | 21 | 7.0 | 9.0 | 0.00 | 0.00 | 0.00 | 42 | 1015.1 |
| 20260506013251 | 48 | 18 | 9.0 | 13.0 | 0.00 | 0.00 | 0.00 | 42 | 1014.9 |
| 20260506012748 | 48 | 54 | 7.0 | 9.0 | 0.00 | 0.00 | 0.00 | 42 | 1014.7 |
| 20260506012245 | 48 | 6 | 13.0 | 16.0 | 0.00 | 0.00 | 0.00 | 42 | 1014.9 |
| 20260506011742 | 49 | 5 | 13.0 | 15.0 | 0.00 | 0.00 | 0.00 | 42 | 1014.7 |
| 20260506011238 | 49 | 10 | 10.0 | 11.0 | 0.00 | 0.00 | 0.00 | 42 | 1014.5 |
| 20260506010737 | 49 | 25 | 9.0 | 10.0 | 0.00 | 0.00 | 0.00 | 42 | 1014.6 |
| 20260506010234 | 49 | 0 | 8.0 | 10.0 | 0.00 | 0.00 | 0.00 | 41 | 1014.8 |
| 20260506005731 | 49 | 101 | 1.0 | 2.0 | 0.00 | 0.00 | 0.00 | 41 | 1014.7 |
| 20260506005228 | 49 | 358 | 7.0 | 9.0 | 0.00 | 0.00 | 0.00 | 43 | 1014.7 |
| 20260506004723 | 49 | 9 | 7.0 | 10.0 | 0.00 | 0.00 | 0.00 | 42 | 1014.5 |
| 20260506004221 | 49 | 355 | 11.0 | 13.0 | 0.00 | 0.00 | 0.00 | 42 | 1014.5 |
| 20260506003717 | 50 | 6 | 12.0 | 16.0 | 0.00 | 0.00 | 0.00 | 41 | 1014.6 |
| 20260506003214 | 50 | 31 | 11.0 | 14.0 | 0.00 | 0.00 | 0.00 | 41 | 1014.6 |
| 20260506002709 | 50 | 1 | 13.0 | 16.0 | 0.00 | 0.00 | 0.00 | 42 | 1014.2 |
| 20260506002206 | 50 | 1 | 8.0 | 11.0 | 0.00 | 0.00 | 0.00 | 42 | 1014.6 |
| 20260506001702 | 49 | 67 | 4.0 | 6.0 | 0.00 | 0.00 | 0.00 | 43 | 1014.5 |
| 20260506001159 | 49 | 6 | 10.0 | 13.0 | 0.00 | 0.00 | 0.00 | 43 | 1014.5 |
| 20260506000656 | 50 | 15 | 7.0 | 11.0 | 0.00 | 0.00 | 0.00 | 43 | 1014.6 |
| 20260506000154 | 50 | 12 | 12.0 | 15.0 | 0.00 | 0.00 | 0.00 | 42 | 1014.6 |
| 20260505235652 | 50 | 36 | 13.0 | 16.0 | 0.00 | 0.00 | 0.00 | 42 | 1014.6 |
| 20260505235149 | 50 | 357 | 10.0 | 13.0 | 0.00 | 0.00 | 0.00 | 41 | 1014.7 |
| 20260505234645 | 51 | 29 | 6.0 | 8.0 | 0.00 | 0.00 | 0.00 | 42 | 1014.9 |
| 20260505234142 | 52 | 33 | 10.0 | 11.0 | 0.00 | 0.00 | 0.00 | 42 | 1014.5 |
| 20260505233639 | 52 | 351 | 5.0 | 7.0 | 0.00 | 0.00 | 0.00 | 41 | 1014.6 |
| 20260505233137 | 50 | 73 | 1.0 | 2.0 | 0.00 | 0.00 | 0.00 | 43 | 1014.6 |
| 20260505232634 | 52 | 348 | 12.0 | 17.0 | 0.00 | 0.00 | 0.00 | 42 | 1014.5 |
| 20260505232132 | 35 | 357 | 6.0 | 9.0 | 0.00 | 0.00 | 0.00 | 40 | 1014.5 |
| 20260505231628 | 0 | 357 | 1.0 | 3.0 | 0.00 | 0.00 | 0.00 | 1014.5 | |
| 20260505231127 | 0 | 19 | 7.0 | 9.0 | 0.00 | 0.00 | 0.00 | 1014.3 | |
| 20260505230625 | 0 | 146 | 1.0 | 2.0 | 0.00 | 0.00 | 0.00 | 1014.3 | |
| 20260505230121 | 0 | 297 | 7.0 | 14.0 | 0.00 | 0.00 | 0.00 | 1014.2 | |
| 20260505225617 | 0 | 7 | 7.0 | 14.0 | 0.00 | 0.00 | 0.00 | 1014.3 | |
| 20260505225114 | 0 | 41 | 10.0 | 11.0 | 0.00 | 0.00 | 0.00 | 1014.3 | |
| 20260505224610 | 0 | 352 | 13.0 | 17.0 | 0.00 | 0.00 | 0.00 | 1014.5 | |
| 20260505224108 | 0 | 311 | 9.0 | 13.0 | 0.00 | 0.00 | 0.00 | 1014.2 | |
| 20260505223605 | 0 | 246 | 5.0 | 8.0 | 0.00 | 0.00 | 0.00 | 1014.7 | |
| 20260505223101 | 0 | 340 | 3.0 | 6.0 | 0.00 | 0.00 | 0.00 | 1014.8 | |
| 20260505222558 | 0 | 26 | 0.0 | 1.0 | 0.00 | 0.00 | 0.00 | 1014.5 | |
| 20260505222054 | 0 | 346 | 4.0 | 7.0 | 0.00 | 0.00 | 0.00 | 1014.6 | |
| 20260505221551 | 0 | 310 | 4.0 | 6.0 | 0.00 | 0.00 | 0.00 | 1014.6 | |
| 20260505221047 | 0 | 337 | 7.0 | 13.0 | 0.00 | 0.00 | 0.00 | 1014.5 | |
| 20260505220545 | 0 | 263 | 5.0 | 10.0 | 0.00 | 0.00 | 0.00 | 1014.6 | |
| 20260505220043 | 0 | 352 | 3.0 | 5.0 | 0.00 | 0.00 | 0.00 | 1014.3 | |
| 20260505215540 | 0 | 106 | 2.0 | 2.0 | 0.00 | 0.00 | 0.00 | 1014.5 | |
| 20260505215038 | 0 | 5 | 11.0 | 14.0 | 0.00 | 0.00 | 0.00 | 1014.2 | |
| 20260505214536 | 0 | 308 | 10.0 | 14.0 | 0.00 | 0.00 | 0.00 | 1014.5 | |
| 20260505214032 | 0 | 192 | 4.0 | 7.0 | 0.00 | 0.00 | 0.00 | 1014.5 | |
| 20260505213530 | 0 | 54 | 2.0 | 5.0 | 0.00 | 0.00 | 0.00 | 1014.5 | |
| 20260505213026 | 0 | 58 | 6.0 | 10.0 | 0.00 | 0.00 | 0.00 | 1014.7 | |
| 20260505212523 | 0 | 250 | 7.0 | 10.0 | 0.00 | 0.00 | 0.00 | 1014.2 | |
| 20260505212020 | 0 | 301 | 10.0 | 14.0 | 0.00 | 0.00 | 0.00 | 1014.7 | |
| 20260505211517 | 0 | 331 | 14.0 | 20.0 | 0.00 | 0.00 | 0.00 | 1014.5 | |
| 20260505211014 | 0 | 14 | 6.0 | 10.0 | 0.00 | 0.00 | 0.00 | 1014.7 | |
| 20260505210510 | 0 | 81 | 3.0 | 7.0 | 0.00 | 0.00 | 0.00 | 1014.7 | |
| 20260505210008 | 0 | 23 | 2.0 | 3.0 | 0.00 | 0.00 | 0.00 | 1014.7 | |
| 20260505205506 | 0 | 134 | 7.0 | 14.0 | 0.00 | 0.00 | 0.00 | 1014.6 | |
| 20260505205003 | 0 | 327 | 11.0 | 17.0 | 0.00 | 0.00 | 0.00 | 1014.6 | |
| 20260505204500 | 0 | 236 | 8.0 | 13.0 | 0.00 | 0.00 | 0.00 | 1014.7 | |
| 20260505203957 | 0 | 307 | 13.0 | 16.0 | 0.00 | 0.00 | 0.00 | 1014.9 | |
| 20260505203453 | 0 | 285 | 10.0 | 13.0 | 0.00 | 0.00 | 0.00 | 1014.6 | |
| 20260505202950 | 0 | 108 | 3.0 | 6.0 | 0.00 | 0.00 | 0.00 | 1014.8 | |
| 20260505202447 | 0 | 304 | 19.0 | 22.0 | 0.00 | 0.00 | 0.00 | 1014.7 | |
| 20260505201943 | 0 | 283 | 7.0 | 14.0 | 0.00 | 0.00 | 0.00 | 1014.9 | |
| 20260505201440 | 0 | 158 | 6.0 | 18.0 | 0.00 | 0.00 | 0.00 | 1014.8 | |
| 20260505200938 | 0 | 328 | 8.0 | 11.0 | 0.00 | 0.00 | 0.00 | 1014.8 | |
| 20260505200435 | 0 | 68 | 7.0 | 11.0 | 0.00 | 0.00 | 0.00 | 1014.9 | |
| 20260505195930 | 0 | 70 | 3.0 | 5.0 | 0.00 | 0.00 | 0.00 | 1014.9 | |
| 20260505195428 | 0 | 273 | 8.0 | 11.0 | 0.00 | 0.00 | 0.00 | 1014.9 | |
| 20260505194925 | 0 | 60 | 3.0 | 3.0 | 0.00 | 0.00 | 0.00 | 1014.9 | |
| 20260505194423 | 0 | 23 | 5.0 | 9.0 | 0.00 | 0.00 | 0.00 | 1014.8 | |
| 20260505193922 | 0 | 92 | 6.0 | 9.0 | 0.00 | 0.00 | 0.00 | 1015.0 | |
| 20260505193420 | 0 | 314 | 6.0 | 10.0 | 0.00 | 0.00 | 0.00 | 1014.9 | |
| 20260505192918 | 0 | 321 | 5.0 | 10.0 | 0.00 | 0.00 | 0.00 | 1014.9 | |
| 20260505192416 | 0 | 1 | 3.0 | 6.0 | 0.00 | 0.00 | 0.00 | 1014.9 | |
| 20260505191913 | 0 | 338 | 2.0 | 3.0 | 0.00 | 0.00 | 0.00 | 1014.9 | |
| 20260505191412 | 0 | 77 | 1.0 | 1.0 | 0.00 | 0.00 | 0.00 | 1015.0 | |
| 20260505190908 | 0 | 38 | 3.0 | 6.0 | 0.00 | 0.00 | 0.00 | 1014.8 | |
| 20260505190404 | 0 | 166 | 3.0 | 5.0 | 0.00 | 0.00 | 0.00 | 1015.1 | |
| 20260505185859 | 0 | 140 | 5.0 | 7.0 | 0.00 | 0.00 | 0.00 | 1014.9 | |
| 20260505185356 | 0 | 251 | 5.0 | 7.0 | 0.00 | 0.00 | 0.00 | 1015.1 | |
| 20260505184852 | 0 | 236 | 3.0 | 3.0 | 0.00 | 0.00 | 0.00 | 1015.1 | |
| 20260505184349 | 0 | 17 | 4.0 | 5.0 | 0.00 | 0.00 | 0.00 | 1015.1 | |
| 20260505183846 | 0 | 250 | 6.0 | 11.0 | 0.00 | 0.00 | 0.00 | 1015.0 | |
| 20260505183343 | 0 | 24 | 2.0 | 3.0 | 0.00 | 0.00 | 0.00 | 1015.0 | |
| 20260505182840 | 0 | 43 | 2.0 | 3.0 | 0.00 | 0.00 | 0.00 | 1015.1 | |
| 20260505182337 | 0 | 86 | 4.0 | 6.0 | 0.00 | 0.00 | 0.00 | 1015.2 | |
| 20260505181833 | 0 | 49 | 5.0 | 8.0 | 0.00 | 0.00 | 0.00 | 1014.9 | |
| 20260505181331 | 0 | 5 | 12.0 | 16.0 | 0.00 | 0.00 | 0.00 | 1015.1 | |
| 20260505180827 | 0 | 117 | 1.0 | 2.0 | 0.00 | 0.00 | 0.00 | 1015.1 | |
| 20260505180324 | 0 | 195 | 2.0 | 2.0 | 0.00 | 0.00 | 0.00 | 1015.2 | |
| 20260505175820 | 0 | 101 | 4.0 | 7.0 | 0.00 | 0.00 | 0.00 | 1015.3 | |
| 20260505175317 | 0 | 97 | 1.0 | 2.0 | 0.00 | 0.00 | 0.00 | 1015.3 | |
| 20260505174813 | 0 | 58 | 4.0 | 6.0 | 0.00 | 0.00 | 0.00 | 1015.4 | |
| 20260505174311 | 0 | 298 | 9.0 | 13.0 | 0.00 | 0.00 | 0.00 | 1015.2 | |
| 20260505173806 | 0 | 261 | 2.0 | 3.0 | 0.00 | 0.00 | 0.00 | 1015.2 | |
| 20260505173303 | 0 | 11 | 17.0 | 22.0 | 0.00 | 0.00 | 0.00 | 1015.3 | |
| 20260505172800 | 0 | 264 | 5.0 | 8.0 | 0.00 | 0.00 | 0.00 | 1015.4 | |
| 20260505172257 | 0 | 178 | 3.0 | 7.0 | 0.00 | 0.00 | 0.00 | 1015.4 | |
| 20260505171752 | 0 | 31 | 3.0 | 5.0 | 0.00 | 0.00 | 0.00 | 1015.3 | |
| 20260505171249 | 0 | 45 | 2.0 | 3.0 | 0.00 | 0.00 | 0.00 | 1015.3 | |
| 20260505170746 | 0 | 1 | 11.0 | 14.0 | 0.00 | 0.00 | 0.00 | 1015.5 | |
| 20260505170243 | 0 | 118 | 5.0 | 8.0 | 0.00 | 0.00 | 0.00 | 1015.5 | |
| 20260505165738 | 0 | 355 | 9.0 | 15.0 | 0.00 | 0.00 | 0.00 | 1015.5 | |
| 20260505165234 | 0 | 276 | 11.0 | 14.0 | 0.00 | 0.00 | 0.00 | 1015.4 | |
| 20260505164730 | 0 | 335 | 5.0 | 8.0 | 0.00 | 0.00 | 0.00 | 1015.5 | |
| 20260505164227 | 0 | 299 | 8.0 | 13.0 | 0.00 | 0.00 | 0.00 | 1015.7 | |
| 20260505163725 | 0 | 271 | 7.0 | 8.0 | 0.00 | 0.00 | 0.00 | 1015.5 | |
| 20260505163224 | 0 | 134 | 2.0 | 2.0 | 0.00 | 0.00 | 0.00 | 1015.5 | |
| 20260505162721 | 0 | 354 | 5.0 | 9.0 | 0.00 | 0.00 | 0.00 | 1015.5 | |
| 20260505162218 | 0 | 70 | 4.0 | 7.0 | 0.00 | 0.00 | 0.00 | 1015.7 | |
| 20260505161714 | 0 | 344 | 5.0 | 10.0 | 0.00 | 0.00 | 0.00 | 1015.5 | |
| 20260505161212 | 0 | 322 | 8.0 | 11.0 | 0.00 | 0.00 | 0.00 | 1016.0 | |
| 20260505160710 | 0 | 301 | 3.0 | 5.0 | 0.00 | 0.00 | 0.00 | 1015.5 | |
| 20260505160207 | 0 | 263 | 5.0 | 8.0 | 0.00 | 0.00 | 0.00 | 1015.8 | |
| 20260505153146 | 0 | 50 | 8.0 | 14.0 | 0.00 | 0.00 | 0.00 | 1015.9 | |
| 20260505152643 | 0 | 85 | 4.0 | 6.0 | 0.00 | 0.00 | 0.00 | 1016.1 | |
| 20260505152138 | 0 | 263 | 4.0 | 7.0 | 0.00 | 0.00 | 0.00 | 1015.7 | |
| 20260505151634 | 0 | 132 | 3.0 | 5.0 | 0.00 | 0.00 | 0.00 | 1015.9 | |
| 20260505151132 | 0 | 97 | 4.0 | 6.0 | 0.00 | 0.00 | 0.00 | 1015.8 | |
| 20260505150627 | 0 | 31 | 4.0 | 8.0 | 0.00 | 0.00 | 0.00 | 1015.8 | |
| 20260505150125 | 0 | 116 | 0.0 | 1.0 | 0.00 | 0.00 | 0.00 | 1015.8 | |
| 20260505140553 | 0 | 340 | 4.0 | 8.0 | 0.00 | 0.00 | 0.00 | 1015.9 | |
| 20260505125007 | 0 | 116 | 1.0 | 1.0 | 0.00 | 0.00 | 0.00 | 1015.1 | |
| 20260505124503 | 0 | 113 | 0.0 | 0.0 | 0.00 | 0.00 | 0.00 | 1015.2 | |
| 20260505124000 | 0 | 118 | 0.0 | 1.0 | 0.00 | 0.00 | 0.00 | 1015.1 | |
| 20260505123456 | 0 | 119 | 2.0 | 2.0 | 0.00 | 0.00 | 0.00 | 1015.1 | |
| 20260505122952 | 0 | 53 | 3.0 | 3.0 | 0.00 | 0.00 | 0.00 | 1015.0 | |
| 20260505122450 | 0 | 119 | 2.0 | 5.0 | 0.00 | 0.00 | 0.00 | 1015.1 | |
| 20260505121946 | 0 | 134 | 2.0 | 2.0 | 0.00 | 0.00 | 0.00 | 1015.0 | |
| 20260505121443 | 0 | 184 | 2.0 | 2.0 | 0.00 | 0.00 | 0.00 | 1014.9 | |
| 20260505120939 | 0 | 109 | 0.0 | 0.0 | 0.00 | 0.00 | 0.00 | 1014.9 | |
| 20260505120436 | 0 | 112 | 0.0 | 1.0 | 0.00 | 0.00 | 0.00 | 1015.1 | |
| 20260505115935 | 0 | 97 | 1.0 | 2.0 | 0.00 | 0.00 | 0.00 | 1014.9 | |
| 20260505115432 | 0 | 118 | 0.0 | 0.0 | 0.00 | 0.00 | 0.00 | 1014.9 | |
| 20260505114930 | 0 | 108 | 1.0 | 2.0 | 0.00 | 0.00 | 0.00 | 1014.9 | |
| 20260505114426 | 0 | 109 | 0.0 | 0.0 | 0.00 | 0.00 | 0.00 | 1014.9 | |
| 20260505113922 | 0 | 121 | 0.0 | 0.0 | 0.00 | 0.00 | 0.00 | 1014.9 | |
| 20260505113419 | 0 | 116 | 1.0 | 1.0 | 0.00 | 0.00 | 0.00 | 1015.0 | |
| 20260505112914 | 0 | 118 | 0.0 | 0.0 | 0.00 | 0.00 | 0.00 | 1014.7 | |
| 20260505112413 | 0 | 106 | 3.0 | 5.0 | 0.00 | 0.00 | 0.00 | 1014.8 | |
| 20260505111908 | 0 | 68 | 2.0 | 3.0 | 0.00 | 0.00 | 0.00 | 1014.9 | |
| 20260505111403 | 0 | 114 | 0.0 | 1.0 | 0.00 | 0.00 | 0.00 | 1014.9 | |
| 20260505110859 | 0 | 72 | 1.0 | 2.0 | 0.00 | 0.00 | 0.00 | 1014.8 | |
| 20260505110357 | 0 | 114 | 0.0 | 0.0 | 0.00 | 0.00 | 0.00 | 1014.7 | |
| 20260505101827 | 0 | 119 | 0.0 | 0.0 | 0.00 | 0.00 | 0.00 | 1014.6 | |
| 20260505101322 | 0 | 119 | 0.0 | 0.0 | 0.00 | 0.00 | 0.00 | 1014.6 | |
| 20260505100818 | 0 | 116 | 0.0 | 0.0 | 0.00 | 0.00 | 0.00 | 1014.6 | |
| 20260505100315 | 0 | 77 | 1.0 | 2.0 | 0.00 | 0.00 | 0.00 | 1014.3 | |
| 20260505095811 | 0 | 80 | 0.0 | 1.0 | 0.00 | 0.00 | 0.00 | 1014.3 | |
| 20260505095309 | 0 | 74 | 3.0 | 3.0 | 0.00 | 0.00 | 0.00 | 1014.3 | |
| 20260505094804 | 0 | 114 | 0.0 | 0.0 | 0.00 | 0.00 | 0.00 | 1014.5 | |
| 20260505094301 | 0 | 79 | 2.0 | 2.0 | 0.00 | 0.00 | 0.00 | 1014.3 | |
| 20260505093757 | 0 | 82 | 1.0 | 2.0 | 0.00 | 0.00 | 0.00 | 1014.1 | |
| 20260505093255 | 0 | 85 | 2.0 | 2.0 | 0.00 | 0.00 | 0.00 | 1014.5 | |
| 20260505092751 | 0 | 97 | 0.0 | 0.0 | 0.00 | 0.00 | 0.00 | 1014.3 | |
| 20260505092250 | 0 | 114 | 0.0 | 0.0 | 0.00 | 0.00 | 0.00 | 1013.9 | |
| 20260505091747 | 0 | 110 | 0.0 | 0.0 | 0.00 | 0.00 | 0.00 | 1014.2 | |
| 20260505091245 | 0 | 104 | 0.0 | 0.0 | 0.00 | 0.00 | 0.00 | 1014.3 | |
| 20260505090742 | 0 | 121 | 0.0 | 0.0 | 0.00 | 0.00 | 0.00 | 1014.3 | |
| 20260505090240 | 0 | 160 | 1.0 | 1.0 | 0.00 | 0.00 | 0.00 | 1014.0 | |
| 20260505085737 | 0 | 164 | 2.0 | 2.0 | 0.00 | 0.00 | 0.00 | 1014.2 | |
| 20260505085236 | 0 | 144 | 1.0 | 1.0 | 0.00 | 0.00 | 0.00 | 1014.1 | |
| 20260505084732 | 0 | 144 | 1.0 | 1.0 | 0.00 | 0.00 | 0.00 | 1014.1 | |
| 20260505084232 | 0 | 162 | 2.0 | 2.0 | 0.00 | 0.00 | 0.00 | 1014.1 | |
| 20260505083728 | 0 | 169 | 3.0 | 3.0 | 0.00 | 0.00 | 0.00 | 1014.2 | |
| 20260505083225 | 0 | 120 | 0.0 | 0.0 | 0.00 | 0.00 | 0.00 | 1014.0 | |
| 20260505082721 | 0 | 120 | 0.0 | 0.0 | 0.00 | 0.00 | 0.00 | 1014.5 | |
| 20260505082219 | 0 | 112 | 0.0 | 0.0 | 0.00 | 0.00 | 0.00 | 1014.5 | |
| 20260505081714 | 0 | 81 | 0.0 | 0.0 | 0.00 | 0.00 | 0.00 | 1014.5 | |
| 20260505081212 | 0 | 112 | 0.0 | 0.0 | 0.00 | 0.00 | 0.00 | 1014.2 | |
| 20260505080709 | 0 | 103 | 0.0 | 0.0 | 0.00 | 0.00 | 0.00 | 1014.2 | |
| 20260505080204 | 0 | 91 | 0.0 | 0.0 | 0.00 | 0.00 | 0.00 | 1014.0 | |
| 20260505075700 | 0 | 52 | 3.0 | 3.0 | 0.00 | 0.00 | 0.00 | 1013.9 | |
| 20260505075157 | 0 | 58 | 3.0 | 3.0 | 0.00 | 0.00 | 0.00 | 1014.3 | |
| 20260505074654 | 0 | 20 | 2.0 | 3.0 | 0.00 | 0.00 | 0.00 | 1014.2 | |
| 20260505074151 | 0 | 54 | 3.0 | 3.0 | 0.00 | 0.00 | 0.00 | 1014.2 | |
| 20260505073649 | 0 | 31 | 5.0 | 6.0 | 0.00 | 0.00 | 0.00 | 1014.1 | |
| 20260505073147 | 0 | 25 | 3.0 | 3.0 | 0.00 | 0.00 | 0.00 | 1014.0 | |
| 20260505072642 | 0 | 77 | 2.0 | 2.0 | 0.00 | 0.00 | 0.00 | 1014.0 | |
| 20260505072139 | 0 | 76 | 2.0 | 2.0 | 0.00 | 0.00 | 0.00 | 1014.1 | |
| 20260505071634 | 0 | 24 | 4.0 | 5.0 | 0.00 | 0.00 | 0.00 | 1014.2 | |
| 20260505071132 | 0 | 15 | 7.0 | 8.0 | 0.00 | 0.00 | 0.00 | 1014.1 | |
| 20260505070629 | 0 | 22 | 5.0 | 6.0 | 0.00 | 0.00 | 0.00 | 1013.9 | |
| 20260505070126 | 0 | 12 | 7.0 | 7.0 | 0.00 | 0.00 | 0.00 | 1014.1 | |
| 20260505065622 | 0 | 23 | 7.0 | 8.0 | 0.00 | 0.00 | 0.00 | 1014.1 | |
| 20260505065118 | 0 | 3 | 5.0 | 6.0 | 0.00 | 0.00 | 0.00 | 1014.0 | |
| 20260505064615 | 0 | 19 | 7.0 | 7.0 | 0.00 | 0.00 | 0.00 | 1014.0 | |
| 20260505064114 | 0 | 14 | 8.0 | 9.0 | 0.00 | 0.00 | 0.00 | 1013.9 | |
| 20260505063611 | 0 | 21 | 4.0 | 5.0 | 0.00 | 0.00 | 0.00 | 1013.7 | |
| 20260505063106 | 0 | 12 | 3.0 | 5.0 | 0.00 | 0.00 | 0.00 | 1014.0 | |
| 20260505062603 | 0 | 22 | 9.0 | 10.0 | 0.00 | 0.00 | 0.00 | 1014.1 | |
| 20260505062101 | 0 | 17 | 8.0 | 8.0 | 0.00 | 0.00 | 0.00 | 1013.8 | |
| 20260505061558 | 0 | 13 | 7.0 | 7.0 | 0.00 | 0.00 | 0.00 | 1013.7 | |
| 20260505061056 | 0 | 17 | 6.0 | 7.0 | 0.00 | 0.00 | 0.00 | 1013.8 | |
| 20260505060553 | 0 | 40 | 4.0 | 5.0 | 0.00 | 0.00 | 0.00 | 1013.9 | |
| 20260505060049 | 0 | 21 | 6.0 | 7.0 | 0.00 | 0.00 | 0.00 | 1013.7 | |
| 20260505055545 | 0 | 23 | 6.0 | 7.0 | 0.00 | 0.00 | 0.00 | 1013.7 | |
| 20260505055042 | 0 | 19 | 6.0 | 7.0 | 0.00 | 0.00 | 0.00 | 1013.8 | |
| 20260505054539 | 0 | 18 | 4.0 | 5.0 | 0.00 | 0.00 | 0.00 | 1013.8 | |
| 20260505054037 | 0 | 28 | 3.0 | 3.0 | 0.00 | 0.00 | 0.00 | 1013.7 | |
| 20260505053534 | 0 | 61 | 5.0 | 6.0 | 0.00 | 0.00 | 0.00 | 1013.5 | |
| 20260505053031 | 0 | 33 | 4.0 | 5.0 | 0.00 | 0.00 | 0.00 | 1013.6 | |
| 20260505052528 | 0 | 24 | 4.0 | 5.0 | 0.00 | 0.00 | 0.00 | 1013.7 | |
| 20260505052025 | 0 | 32 | 3.0 | 3.0 | 0.00 | 0.00 | 0.00 | 1013.6 | |
| 20260505051522 | 0 | 48 | 3.0 | 3.0 | 0.00 | 0.00 | 0.00 | 1013.6 | |
| 20260505051020 | 0 | 45 | 5.0 | 7.0 | 0.00 | 0.00 | 0.00 | 1013.7 | |
| 20260505050518 | 0 | 52 | 4.0 | 5.0 | 0.00 | 0.00 | 0.00 | 1013.5 | |
| 20260505041445 | 0 | 45 | 7.0 | 8.0 | 0.00 | 0.00 | 0.00 | 1013.2 | |
| 20260505040943 | 0 | 40 | 6.0 | 7.0 | 0.00 | 0.00 | 0.00 | 1013.2 | |
| 20260505040440 | 0 | 11 | 9.0 | 9.0 | 0.00 | 0.00 | 0.00 | 1013.1 | |
| 20260505035937 | 0 | 45 | 9.0 | 10.0 | 0.00 | 0.00 | 0.00 | 1013.4 | |
| 20260505035433 | 0 | 47 | 9.0 | 10.0 | 0.00 | 0.00 | 0.00 | 1013.2 | |
| 20260505034930 | 0 | 39 | 6.0 | 7.0 | 0.00 | 0.00 | 0.00 | 1013.1 | |
| 20260505034426 | 0 | 44 | 9.0 | 10.0 | 0.00 | 0.00 | 0.00 | 1012.8 | |
| 20260505033924 | 0 | 37 | 11.0 | 11.0 | 0.00 | 0.00 | 0.00 | 1012.9 | |
| 20260505033420 | 0 | 44 | 10.0 | 11.0 | 0.00 | 0.00 | 0.00 | 1012.9 | |
| 20260505032919 | 0 | 9 | 7.0 | 7.0 | 0.00 | 0.00 | 0.00 | 1012.9 | |
| 20260505032415 | 0 | 23 | 11.0 | 13.0 | 0.00 | 0.00 | 0.00 | 1012.7 | |
| 20260505031912 | 0 | 20 | 11.0 | 14.0 | 0.00 | 0.00 | 0.00 | 1012.6 | |
| 20260505031409 | 0 | 51 | 10.0 | 13.0 | 0.00 | 0.00 | 0.00 | 1012.6 | |
| 20260505030906 | 0 | 15 | 11.0 | 13.0 | 0.00 | 0.00 | 0.00 | 1012.4 | |
| 20260505030402 | 0 | 22 | 10.0 | 10.0 | 0.00 | 0.00 | 0.00 | 1012.3 | |
| 20260505025857 | 0 | 64 | 6.0 | 8.0 | 0.00 | 0.00 | 0.00 | 1012.5 | |
| 20260505025355 | 0 | 11 | 9.0 | 9.0 | 0.00 | 0.00 | 0.00 | 1012.3 | |
| 20260505024854 | 0 | 28 | 8.0 | 8.0 | 0.00 | 0.00 | 0.00 | 1012.3 | |
| 20260505024351 | 0 | 39 | 12.0 | 15.0 | 0.00 | 0.00 | 0.00 | 1012.0 | |
| 20260505023848 | 0 | 19 | 17.0 | 20.0 | 0.00 | 0.00 | 0.00 | 1012.2 | |
| 20260505023345 | 0 | 18 | 13.0 | 16.0 | 0.00 | 0.00 | 0.00 | 1012.2 | |
| 20260505022842 | 0 | 27 | 13.0 | 15.0 | 0.00 | 0.00 | 0.00 | 1011.8 | |
| 20260505022339 | 0 | 21 | 15.0 | 18.0 | 0.00 | 0.00 | 0.00 | 1011.8 | |
| 20260505021836 | 0 | 17 | 15.0 | 18.0 | 0.00 | 0.00 | 0.00 | 1011.7 | |
| 20260505021332 | 0 | 43 | 13.0 | 14.0 | 0.00 | 0.00 | 0.00 | 1011.6 |